This demonstration page uses our WeatherBlox Daily Observations layout. Learn more.

Left ArrowRight Arrow

47.50024, -111.30081

Hourly Observations for August 11, 2022

Temp ( °F °C ) Dew Point ( °F °C ) Humidity (%) Winds ( mph kmh ) Pressure ( in mb ) Visibility ( mi km ) Precip ( " mm )
12:53 am 00:53 Partly Cloudy 70 21.1 50 10 49 49 SW 9 15 30.03 1017 10 16 0.00 0.00
1:53 am 01:53 Mostly Cloudy 72 22.2 51 10.6 48 48 Calm 30.02 1017 10 16 0.00 0.00
2:53 am 02:53 Cloudy 71 21.7 52 11.1 51 51 SSW 3 6 30.01 1016 10 16 0.00 0.00
3:53 am 03:53 Clear 70 21.1 52 11.1 53 53 S 5 7 30.01 1016 10 16 0.00 0.00
4:53 am 04:53 Clear 65 18.3 52 11.1 63 63 SW 5 7 30.01 1016 10 16 0.00 0.00
5:53 am 05:53 Clear 68 20 52 11.1 57 57 SSW 7 11 30.00 1016 10 16 0.00 0.00
6:53 am 06:53 Sunny 70 21.1 52 11.1 53 53 SSW 9 15 30.00 1016 10 16 0.00 0.00
7:53 am 07:53 Sunny 73 22.8 54 12.2 51 51 SSW 14 22 30.01 1016 10 16 0.00 0.00
8:53 am 08:53 Sunny 76 24.4 54 12.2 47 47 SW 14 22 30.01 1016 10 16 0.00 0.00
9:53 am 09:53 Sunny 79 26.1 54 12.2 42 42 SW 13 20 30.00 1016 10 16 0.00 0.00
10:53 am 10:53 Sunny 83 28.3 51 10.6 33 33 W 13 20 30.00 1016 10 16 0.00 0.00
11:53 am 11:53 Sunny 85 29.4 51 10.6 31 31 WSW 10 17 30.00 1016 10 16 0.00 0.00
12:53 pm 12:53 Sunny 88 31.1 51 10.6 28 28 W 12 19 29.99 1016 10 16 0.00 0.00
1:53 pm 13:53 Sunny 91 32.8 49 9.4 24 24 WNW 12 19 29.98 1015 10 16 0.00 0.00
2:53 pm 14:53 Sunny 92 33.3 48 8.9 22 22 undefined N/A 29.97 1015 10 16 0.00 0.00
3:53 pm 15:53 Sunny 93 33.9 46 7.8 20 20 NNW 9 15 29.96 1015 10 16 0.00 0.00
4:53 pm 16:53 Sunny 95 35 42 5.6 16 16 WNW 10 17 29.95 1014 10 16 0.00 0.00
5:53 pm 17:53 Sunny 94 34.4 42 5.6 17 17 W 8 13 29.93 1014 10 16 0.00 0.00
6:53 pm 18:53 Sunny 94 34.4 42 5.6 17 17 N 7 11 29.91 1013 10 16 0.00 0.00
7:53 pm 19:53 Sunny 89 31.7 42 5.6 19 19 NW 5 7 29.92 1013 10 16 0.00 0.00
8:53 pm 20:53 Clear 80 26.7 40 4.4 24 24 NNW 7 11 29.95 1014 10 16 0.00 0.00
9:53 pm 21:53 Clear 76 24.4 37 2.8 24 24 N 6 9 29.97 1015 10 16 0.00 0.00
10:53 pm 22:53 Clear 76 24.4 35 1.7 23 23 NNW 8 13 29.97 1015 10 16 0.00 0.00
11:53 pm 23:53 Clear 77 25 37 2.8 24 24 NNW 8 13 29.96 1015 10 16 0.00 0.00

Powered by AerisWeather